Location: Newark
(29.9790°N, 31.1340°E)
Time: 06:29:43
(UTC+00:00)

Transit 4A - All Passes

Search period start: 28 January 2020 00:00
Search period end: 07 February 2020 00:00
Orbit: 872 x 973 km, 66.8° (Epoch: 27 January)

Date Brightness Start Highest point End Pass type
(mag) Time Alt. Az. Time Alt. Az. Time Alt. Az.
28 Jan - 02:59:13 10° SSW 03:05:16 68° ESE 03:11:10 10° NNE visible
28 Jan - 04:48:32 10° W 04:52:02 16° NW 04:55:30 10° NNW daylight
28 Jan - 12:08:49 10° N 12:13:31 25° ENE 12:18:15 10° ESE daylight
28 Jan - 13:54:31 10° NW 13:59:53 39° WSW 14:05:20 10° S daylight
29 Jan - 01:27:13 10° ESE 01:28:55 11° ESE 01:30:36 10° E visible
29 Jan - 03:08:28 10° SSW 03:14:33 77° WNW 03:20:31 10° NNE visible
29 Jan - 12:17:37 10° N 12:23:01 38° ENE 12:28:27 10° SE daylight
29 Jan - 14:04:28 10° NW 14:09:03 24° WSW 14:13:42 10° SSW daylight
30 Jan - 01:33:49 10° SSE 01:38:00 19° ESE 01:42:06 10° ENE visible
30 Jan - 03:18:04 10° SW 03:23:55 49° WNW 03:29:39 10° NNE visible
30 Jan - 12:26:38 10° NNW 12:32:24 60° ENE 12:38:14 10° SE daylight
30 Jan - 14:15:07 10° WNW 14:18:09 14° WSW 14:21:14 10° SW daylight
31 Jan - 01:41:52 10° SSE 01:47:08 31° ESE 01:52:19 10° NE visible
31 Jan - 03:28:02 10° WSW 03:33:21 31° WNW 03:38:34 10° N visible
31 Jan - 10:52:38 10° NNE 10:54:45 12° NE 10:56:52 10° ENE daylight
31 Jan - 12:35:52 10° NNW 12:41:44 86° WSW 12:47:40 10° SSE daylight
01 Feb - 01:50:29 10° S 01:56:20 50° ESE 02:02:03 10° NE visible
01 Feb - 03:38:29 10° WSW 03:42:52 21° NW 03:47:13 10° N visible
01 Feb - 11:00:23 10° N 11:04:23 19° NE 11:08:26 10° E daylight
01 Feb - 12:45:19 10° NW 12:50:59 54° WSW 12:56:44 10° S daylight
02 Feb - 01:59:30 10° SSW 02:05:36 81° ESE 02:11:33 10° NNE visible
02 Feb - 03:49:45 10° W 03:52:30 13° NW 03:55:14 10° NNW visible
02 Feb - 11:08:56 10° N 11:13:57 29° ENE 11:18:59 10° ESE daylight
02 Feb - 12:55:01 10° NW 13:00:11 33° WSW 13:05:25 10° S daylight
03 Feb - 00:26:15 10° SE 00:29:10 14° ESE 00:32:03 10° ENE visible
03 Feb - 02:08:53 10° SW 02:14:54 65° WNW 02:20:48 10° NNE visible
03 Feb - 11:17:49 10° N 11:23:23 45° ENE 11:29:01 10° SE daylight
03 Feb - 13:05:10 10° WNW 13:09:19 20° WSW 13:13:33 10° SSW daylight
04 Feb - 00:33:38 10° SSE 00:38:17 23° ESE 00:42:50 10° NE visible
04 Feb - 02:18:37 10° SW 02:24:18 41° WNW 02:29:52 10° N visible
04 Feb - 11:26:56 10° NNW 11:32:46 71° ENE 11:38:40 10° SSE daylight
04 Feb - 13:16:24 10° W 13:18:25 12° WSW 13:20:26 10° WSW daylight
05 Feb - 00:41:56 10° S 00:47:26 37° ESE 00:52:50 10° NE visible
05 Feb - 02:28:45 10° WSW 02:33:46 27° WNW 02:38:42 10° N visible
05 Feb - 09:52:13 10° NNE 09:55:13 14° NE 09:58:14 10° E daylight
05 Feb - 11:36:14 10° NNW 11:42:03 73° WSW 11:47:59 10° SSE daylight
06 Feb - 00:50:42 10° S 00:56:40 60° ESE 01:02:29 10° NNE visible
06 Feb - 02:39:26 10° W 02:43:19 18° NW 02:47:11 10° NNW visible
06 Feb - 10:00:23 10° N 10:04:50 22° NE 10:09:18 10° ESE daylight
06 Feb - 11:45:46 10° NW 11:51:17 45° WSW 11:56:55 10° S daylight
